KB2UHF-8 Weather Reports


time (UTC)temp
F
wind
direction
speed
knots
gust
knots
rain 1hr
in
rain 24hr
in
rain mn
in
humidity
%
barometer
mb
20260509181516 60 315 7.8 14.8 0.00 0.00 0.00 50 1005.9
20260509180516 61 338 8.7 16.5 0.00 0.00 0.00 52 1005.9
20260509175516 61 315 7.8 13.9 0.00 0.00 0.00 53 1005.9
20260509174516 60 315 6.1 10.4 0.00 0.00 0.00 52 1005.8
20260509173616 60 270 9.6 17.4 0.00 0.00 0.00 47 1005.7
20260509172516 60 270 10.4 16.5 0.00 0.00 0.00 48 1005.6
20260509171516 60 315 9.6 19.1 0.00 0.00 0.00 50 1005.6
20260509170516 60 293 8.7 14.8 0.00 0.00 0.00 50 1005.6
20260509165516 60 293 9.6 17.4 0.00 0.00 0.00 53 1005.5
20260509164536 58 315 9.6 17.4 0.00 0.00 0.00 56 1005.3
20260509163516 59 315 8.7 17.4 0.00 0.00 0.00 56 1005.1
20260509162516 60 315 9.6 14.8 0.00 0.00 0.00 55 1005.0
20260509161516 60 293 7.0 13.0 0.00 0.00 0.00 54 1004.9
20260509160536 59 315 8.7 14.8 0.00 0.00 0.00 54 1004.7
20260509155516 59 315 6.1 14.8 0.00 0.00 0.00 56 1004.6
20260509154516 59 270 7.8 17.4 0.00 0.00 0.00 55 1004.5
20260509153516 60 315 7.0 13.9 0.00 0.00 0.00 50 1004.4
20260509152516 59 293 6.1 12.2 0.00 0.00 0.00 46 1004.1
20260509151516 58 270 7.0 11.3 0.00 0.00 0.00 46 1004.0
20260509150516 58 270 5.2 9.6 0.00 0.00 0.00 48 1003.8
20260509145518 57 248 6.1 10.4 0.00 0.00 0.00 48 1004.0
20260509144516 56 225 3.5 8.7 0.00 0.00 0.00 52 1003.7
20260509143536 55 248 1.7 5.2 0.00 0.00 0.00 57 1003.8
20260509142516 54 248 1.7 4.3 0.00 0.00 0.00 52 1003.7
20260509141516 55 270 1.7 4.3 0.00 0.00 0.00 52 1003.7
20260509140516 55 248 1.7 6.1 0.00 0.00 0.00 49 1003.9
20260509135536 55 270 1.7 5.2 0.00 0.00 0.00 50 1004.3
20260509134516 54 293 1.7 5.2 0.00 0.00 0.00 50 1004.0
20260509133516 54 270 3.5 7.0 0.00 0.00 0.00 51 1003.9
20260509132536 54 270 5.2 11.3 0.00 0.00 0.00 51 1004.2
20260509131516 52 270 5.2 9.6 0.00 0.00 0.00 54 1004.6
20260509130516 52 270 4.3 8.7 0.00 0.00 0.00 55 1004.4
20260509125516 51 248 3.5 7.8 0.00 0.00 0.00 56 1003.8
20260509124515 50 270 3.5 7.0 0.00 0.00 0.00 60 1003.6
20260509123556 48 293 4.3 6.1 0.00 0.00 0.00 63 1003.6
20260509122516 47 270 2.6 5.2 0.00 0.00 0.00 65 1002.9
20260509121516 47 248 2.6 3.5 0.00 0.00 0.00 64 1002.6
20260509120556 47 248 2.6 6.1 0.00 0.00 0.00 63 1002.4
20260509115516 47 248 2.6 3.5 0.00 0.00 0.00 62 1002.3
20260509114516 48 248 1.7 2.6 0.00 0.00 0.00 60 1002.2
20260509113535 50 248 1.7 2.6 0.00 0.00 0.00 53 1002.2
20260509112515 51 248 1.7 2.6 0.00 0.00 0.00 50 1002.2
20260509111516 51 225 2.6 5.2 0.00 0.00 0.00 49 1002.3
20260509110515 50 248 1.7 3.5 0.00 0.00 0.00 49 1002.3
20260509105515 50 270 1.7 3.5 0.00 0.00 0.00 50 1002.4
20260509104515 50 248 1.7 2.6 0.00 0.00 0.00 50 1002.5
20260509103515 50 270 1.7 3.5 0.00 0.00 0.00 51 1002.7
20260509102535 50 248 1.7 3.5 0.00 0.00 0.00 51 1002.6
20260509101515 50 248 1.7 3.5 0.00 0.00 0.00 52 1002.5
20260509100515 50 248 2.6 5.2 0.00 0.00 0.00 52 1002.5
20260509095515 50 270 2.6 5.2 0.00 0.00 0.00 53 1002.5
20260509094516 50 270 2.6 6.1 0.00 0.00 0.00 53 1002.7
20260509093515 50 270 2.6 6.1 0.00 0.00 0.00 52 1002.6
20260509092515 50 270 2.6 5.2 0.00 0.00 0.00 54 1002.5
20260509091515 50 270 2.6 5.2 0.00 0.00 0.00 54 1002.6
20260509090515 51 270 2.6 5.2 0.00 0.00 0.00 54 1002.4
20260509085535 50 270 2.6 6.1 0.00 0.00 0.00 54 1002.6
20260509084515 51 270 3.5 6.1 0.00 0.00 0.00 54 1002.7
20260509083515 51 270 2.6 6.1 0.00 0.00 0.00 53 1002.5
20260509082515 52 293 2.6 5.2 0.00 0.00 0.00 50 1002.5
20260509081535 53 293 2.6 6.1 0.00 0.00 0.00 49 1002.5
20260509080515 54 293 2.6 5.2 0.00 0.00 0.00 49 1002.5
20260509075515 54 293 3.5 7.0 0.00 0.00 0.00 47 1002.4
20260509074515 55 270 2.6 7.0 0.00 0.00 0.00 46 1002.5
20260509073535 55 293 3.5 7.0 0.00 0.00 0.00 46 1002.7
20260509072517 56 293 4.3 8.7 0.00 0.00 0.00 46 1002.7
20260509071517 56 270 4.3 7.8 0.00 0.00 0.00 46 1002.7
20260509070517 56 293 4.3 7.8 0.00 0.00 0.00 46 1002.8
20260509065517 56 270 5.2 8.7 0.00 0.00 0.00 46 1002.7
20260509064517 57 270 5.2 9.6 0.00 0.00 0.00 46 1002.7
20260509063537 57 293 4.3 8.7 0.00 0.00 0.00 45 1002.7
20260509062517 57 270 3.5 7.8 0.00 0.00 0.00 45 1002.7
20260509061517 57 270 4.3 8.7 0.00 0.00 0.00 45 1002.6
20260509060537 58 270 4.3 9.6 0.00 0.00 0.00 45 1002.7
20260509055517 57 270 3.5 7.0 0.00 0.00 0.00 44 1002.6
20260509054517 58 270 2.6 6.1 0.00 0.00 0.00 44 1002.6
20260509053517 58 248 3.5 7.0 0.00 0.00 0.00 43 1002.6
20260509052517 58 248 3.5 6.1 0.00 0.00 0.00 43 1002.6
20260509051517 58 248 3.5 7.0 0.00 0.00 0.00 42 1002.7
20260509050517 58 248 2.6 3.5 0.00 0.00 0.00 42 1002.6
20260509045516 59 248 3.5 7.0 0.00 0.00 0.00 41 1002.5
20260509044515 59 248 3.5 5.2 0.00 0.00 0.00 41 1002.7
20260509043516 59 225 2.6 5.2 0.00 0.00 0.00 40 1002.7
20260509042516 59 248 3.5 7.0 0.00 0.00 0.00 40 1002.6
20260509041516 59 225 2.6 4.3 0.00 0.00 0.00 41 1002.5
20260509040536 59 225 2.6 4.3 0.00 0.00 0.00 39 1002.7
20260509035516 60 225 2.6 5.2 0.00 0.00 0.00 38 1002.8
20260509034515 60 225 1.7 4.3 0.00 0.00 0.00 39 1002.9
20260509033536 60 225 1.7 4.3 0.00 0.00 0.00 39 1002.9
20260509032516 60 225 0.9 2.6 0.00 0.00 0.00 38 1002.9
20260509031515 60 225 0.9 2.6 0.00 0.00 0.00 38 1003.0
20260509030516 60 225 0.9 2.6 0.00 0.00 0.00 37 1002.9
20260509025515 61 203 1.7 4.3 0.00 0.00 0.00 37 1003.1
20260509024535 62 225 1.7 3.5 0.00 0.00 0.00 35 1003.2
20260509023557 61 225 0.9 3.5 0.00 0.00 0.00 35 1003.1
20260509022515 61 0.0 2.6 0.00 0.00 0.00 34 1003.0
20260509021515 61 0.0 2.6 0.00 0.00 0.00 33 1002.8
20260509020516 61 0.0 0.9 0.00 0.00 0.00 34 1002.9
20260509015536 62 225 0.9 1.7 0.00 0.00 0.00 34 1002.8
20260509014516 62 0.0 0.9 0.00 0.00 0.00 33 1002.7
20260509013516 63 0.0 0.9 0.00 0.00 0.00 32 1002.6
20260509012515 63 0.0 1.7 0.00 0.00 0.00 32 1002.8
20260509011515 64 225 1.7 2.6 0.00 0.00 0.00 32 1002.7
20260509010515 65 225 1.7 2.6 0.00 0.00 0.00 31 1002.8
20260509005515 65 225 1.7 3.5 0.00 0.00 0.00 30 1002.9
20260509004517 66 225 0.9 1.7 0.00 0.00 0.00 30 1002.7
20260509003516 67 225 2.6 4.3 0.00 0.00 0.00 30 1002.9
20260509002515 68 248 3.5 7.0 0.00 0.00 0.00 26 1003.0
20260509001515 68 225 3.5 7.0 0.00 0.00 0.00 27 1003.0
20260509000516 68 225 4.3 9.6 0.00 0.00 0.00 26 1003.1
20260508235515 68 225 2.6 6.1 0.00 0.00 0.00 29 1003.0
20260508234535 68 248 3.5 9.6 0.00 0.00 0.00 28 1003.2
20260508233535 68 248 5.2 9.6 0.00 0.00 0.00 27 1003.2
20260508232515 67 248 4.3 9.6 0.00 0.00 0.00 28 1003.3
20260508231515 68 225 4.3 11.3 0.00 0.00 0.00 27 1003.4
20260508230515 68 248 6.1 13.0 0.00 0.00 0.00 26 1003.6
20260508225515 68 248 7.8 14.8 0.00 0.00 0.00 26 1003.6
20260508224515 68 248 7.0 11.3 0.00 0.00 0.00 25 1003.7
20260508223515 69 225 7.8 11.3 0.00 0.00 0.00 25 1003.7
20260508222515 69 270 7.8 13.0 0.00 0.00 0.00 24 1003.7
20260508221517 69 270 6.1 13.0 0.00 0.00 0.00 26 1003.9
20260508220517 69 293 6.1 13.0 0.00 0.00 0.00 25 1003.9
20260508215517 69 270 7.8 20.0 0.00 0.00 0.00 25 1004.1
20260508214539 69 248 7.8 18.2 0.00 0.00 0.00 24 1004.1
20260508213517 69 248 7.8 16.5 0.00 0.00 0.00 27 1004.3
20260508212517 69 270 7.0 12.2 0.00 0.00 0.00 24 1004.5
20260508211517 69 270 5.2 11.3 0.00 0.00 0.00 24 1004.5
20260508210517 69 248 6.1 10.4 0.00 0.00 0.00 29 1004.8
20260508205517 69 225 6.1 11.3 0.00 0.00 0.00 30 1005.0
20260508204517 68 225 7.8 13.9 0.00 0.00 0.00 26 1004.9
20260508203519 68 225 6.1 13.0 0.00 0.00 0.00 27 1005.4
20260508202517 67 248 6.1 13.0 0.00 0.00 0.00 25 1005.4
20260508201517 68 225 7.8 18.2 0.00 0.00 0.00 26 1005.6
20260508200517 67 225 5.2 12.2 0.00 0.00 0.00 26 1005.7
20260508195517 67 225 9.6 16.5 0.00 0.00 0.00 26 1006.1
20260508194517 67 248 7.8 15.6 0.00 0.00 0.00 29 1006.2
20260508193517 65 225 5.2 13.9 0.00 0.00 0.00 28 1006.3
20260508192519 65 225 6.1 13.0 0.00 0.00 0.00 30 1006.4
20260508191517 66 225 7.0 13.0 0.00 0.00 0.00 27 1006.6
20260508190517 66 225 7.0 17.4 0.00 0.00 0.00 28 1006.7
20260508185517 66 293 4.3 8.7 0.00 0.00 0.00 31 1007.0
20260508184517 65 248 7.0 15.6 0.00 0.00 0.00 27 1006.9
20260508183517 65 225 3.5 7.8 0.00 0.00 0.00 27 1007.0
20260508182517 65 225 7.0 14.8 0.00 0.00 0.00 30 1007.2